Content
SEND FEEDBACK

Daily
Averages
Monthly
Summary
United States of America

NEW YORK - CENTRAL PARK, NEW YORK


Home > North America > United States > New York
Elevation: 4 meters     Latitude: 40 47N     Longitude: 073 58W

WEATHER
 
SELECT A DAY
Number of Records: 150,506;   Date Range: 11/1/95 - 9/29/14
 
SHARE

PRINT THIS DATA

[ ← Previous Day ]
WEATHER ALMANAC - 27 JANUARY, 2013
[ Next Day → ]
[ °F ]   °C
Weather ElementAverageHighLow
Temperature-2.9 °C0.6 °C (2:51 pm)-7.2 °C (3:51 am)
Dewpoint-13.1 °C-12.2 °C (5:51 am)-14.4 °C (12:51 pm)
Humidity47.5 %68 % (5:51 am)34 % (1:51 pm)
Barometer1031.8 hPa1033.5 hPa (10:51 am)1029.5 hPa (1:51 am)
Wind Speed9.2 km/h18.5 km/h (7:51 am)
Wind Gust29.6 km/h (9:51 am)
Weather ElementAverage
Visibility16.1 km
Wind DirectionSSE (150 °)

Weather ElementTotal
Precipitation---
Heating Degree Days21.7 (Base 18.3)
Averaged from 23 records on 27 January, 2013
WEATHER CONDITIONS BREAKOUT
WIND DIRECTION BREAKOUT
WEATHER BY HOUR - 27 JANUARY, 2013
[ °F ]   °C
Local TimeTemperatureDewpointHumidityBarometerVisibilityWind DirectionWind SpeedGust SpeedPrecipitationEventsConditions
1:51 AM-6.7 °C-13.9 °C57 %1029.5 hPa16.1 kmWest (280°)11.1 km/hClear
2:51 AM-6.7 °C-13.9 °C57 %1029.5 hPa16.1 kmWNW (300°)14.8 km/h25.9 km/hClear
3:51 AM-7.2 °C-13.3 °C62 %1030.1 hPa16.1 kmWest (270°)9.3 km/hClear
4:51 AM-7.2 °C-12.8 °C65 %1030.1 hPa16.1 kmWest (280°)13 km/hClear
5:51 AM-7.2 °C-12.2 °C68 %1030.5 hPa16.1 kmVariable7.4 km/hClear
6:51 AM-6.7 °C-12.2 °C65 %1030.8 hPa16.1 kmVariable7.4 km/h27.8 km/hClear
7:51 AM-6.7 °C-12.8 °C62 %1031.5 hPa16.1 kmWNW (290°)18.5 km/h27.8 km/hClear
8:51 AM-5.6 °C-12.2 °C60 %1032.2 hPa16.1 kmVariable7.4 km/hClear
9:51 AM-4.4 °C-12.8 °C53 %1032.8 hPa16.1 kmVariable11.1 km/h29.6 km/hClear
10:51 AM-2.8 °C-13.3 °C45 %1033.5 hPa16.1 kmVariable9.3 km/hClear
11:51 AM-2.2 °C-13.9 °C41 %1032.5 hPa16.1 kmCalmClear
12:51 PM-0.6 °C-14.4 °C35 %1031.8 hPa16.1 kmWNW (300°)7.4 km/hClear
1:51 PM0 °C-14.4 °C34 %1031.2 hPa16.1 kmVariable7.4 km/hClear
2:51 PM0.6 °C-13.3 °C35 %1031.2 hPa16.1 kmVariable9.3 km/hClear
3:51 PM0.6 °C-13.3 °C35 %1031.5 hPa16.1 kmWNW (290°)16.7 km/hClear
4:51 PM0.6 °C-13.3 °C35 %1032.2 hPa16.1 kmWest (280°)14.8 km/hClear
5:51 PM0 °C-12.8 °C38 %1032.5 hPa16.1 kmWNW (290°)7.4 km/hClear
6:51 PM0 °C-12.2 °C40 %1032.8 hPa16.1 kmWNW (290°)5.6 km/hClear
7:51 PM0 °C-12.8 °C38 %1032.5 hPa16.1 kmWNW (290°)13 km/hClear
8:51 PM-0.6 °C-12.2 °C42 %1032.5 hPa16.1 kmWNW (290°)5.6 km/hClear
9:51 PM-0.6 °C-12.8 °C40 %1032.8 hPa16.1 kmVariable9.3 km/hClear
10:51 PM-1.7 °C-12.8 °C43 %1032.2 hPa16.1 kmVariable5.6 km/hClear
11:51 PM-1.7 °C-12.8 °C43 %1032.2 hPa16.1 kmCalmClear
Hourly data recorded from KNYC, located 0 kilometers away from New York - Central Park, New York







STORIES FROM OUR PARTNERS